GW2366 Weather Reports


time (UTC)temp
C
wind
direction
speed
KPH
gust
KPH
rain 1hr
cm
rain 24hr
cm
rain mn
cm
humidity
%
barometer
mb
20260906161326 12 19 1.6 3.2 0.00 0.00 0.00 96 1015.1
20260906160824 12 39 3.2 3.2 0.00 0.00 0.00 99 1015.2
20260906160319 12 7 0.0 0.0 0.00 0.00 0.00 99 1015.2
20260906155817 12 20 0.0 1.6 0.00 0.00 0.00 99 1015.1
20260906155311 12 0 0.0 0.0 0.00 0.00 0.00 99 1015.1
20260906154808 12 18 0.0 1.6 0.00 0.00 0.00 99 1015.2
20260906154302 12 17 1.6 1.6 0.00 0.00 0.00 99 1015.2
20260906153800 11 355 0.0 0.0 0.00 0.00 0.00 99 1015.2
20260906153255 11 352 0.0 0.0 0.00 0.00 0.00 99 1015.2
20260906152750 11 5 0.0 0.0 0.00 0.00 0.00 99 1015.0
20260906152245 11 16 1.6 1.6 0.00 0.00 0.00 99 1015.0
20260906151744 11 37 3.2 3.2 0.00 0.00 0.00 99 1015.1
20260906151241 11 12 1.6 1.6 0.00 0.00 0.00 99 1015.3
20260906150736 11 9 1.6 1.6 0.00 0.00 0.00 99 1015.1
20260906150231 12 346 0.0 0.0 0.00 0.00 0.00 99 1015.1
20260906145730 11 292 0.0 0.0 0.00 0.00 0.00 99 1015.0
20260906145229 10 292 0.0 0.0 0.00 0.00 0.00 99 1015.1
20260906144725 10 292 0.0 0.0 0.00 0.00 0.00 99 1015.0
20260906144219 10 292 0.0 0.0 0.00 0.00 0.00 99 1014.9
20260906143718 10 292 0.0 0.0 0.00 0.00 0.00 99 1014.6
20260906143216 9 292 0.0 0.0 0.00 0.00 0.00 99 1014.7
20260906142715 9 292 0.0 0.0 0.00 0.00 0.00 99 1014.6
20260906142211 8 292 0.0 0.0 0.00 0.00 0.00 99 1014.3
20260906141709 8 292 0.0 0.0 0.00 0.00 0.00 99 1014.6
20260906141204 8 293 0.0 0.0 0.00 0.00 0.00 99 1014.6
20260906140703 8 293 0.0 0.0 0.00 0.00 0.00 99 1014.4
20260906140159 8 293 0.0 0.0 0.00 0.00 0.00 99 1014.4
20260906135655 8 293 0.0 0.0 0.00 0.00 0.00 99 1014.4
20260906135151 8 293 0.0 0.0 0.00 0.00 0.00 99 1014.5
20260906134647 8 293 0.0 0.0 0.00 0.00 0.00 99 1014.5
20260906134141 7 293 0.0 0.0 0.00 0.00 0.00 99 1014.5
20260906133637 7 293 0.0 0.0 0.00 0.00 0.00 99 1014.3
20260906133132 7 293 0.0 0.0 0.00 0.00 0.00 99 1014.3
20260906132627 7 293 0.0 0.0 0.00 0.00 0.00 99 1014.3
20260906132123 7 293 0.0 0.0 0.00 0.00 0.00 99 1014.2
20260906131619 8 293 0.0 0.0 0.00 0.00 0.00 99 1014.0
20260906131113 8 293 0.0 0.0 0.00 0.00 0.00 99 1014.2
20260906130608 8 293 0.0 0.0 0.00 0.00 0.00 99 1014.0
20260906130103 8 293 0.0 0.0 0.00 0.00 0.00 99 1014.0
20260906125600 8 293 0.0 0.0 0.00 0.00 0.00 99 1014.0
20260906125054 8 293 0.0 0.0 0.00 0.00 0.00 99 1013.9
20260906124550 8 293 0.0 0.0 0.00 0.00 0.00 99 1013.9
20260906124044 8 293 0.0 0.0 0.00 0.00 0.00 99 1013.9
20260906123543 8 293 0.0 0.0 0.00 0.00 0.00 99 1013.8
20260906123039 8 293 0.0 0.0 0.00 0.00 0.00 99 1014.0
20260906122538 8 293 0.0 0.0 0.00 0.00 0.00 99 1014.0
20260906122035 8 293 0.0 0.0 0.00 0.00 0.00 99 1013.9
20260906121531 8 293 0.0 0.0 0.00 0.00 0.00 99 1013.9
20260906121027 8 293 0.0 0.0 0.00 0.00 0.00 99 1014.0
20260906120521 8 293 0.0 0.0 0.00 0.00 0.00 99 1013.9
20260906120019 8 293 0.0 0.0 0.00 0.00 0.00 99 1014.0
20260906115513 8 293 0.0 0.0 0.00 0.00 0.00 99 1013.8
20260906115008 8 293 0.0 0.0 0.00 0.00 0.00 99 1013.8
20260906114503 8 293 0.0 0.0 0.00 0.00 0.00 99 1013.8
20260906113959 8 293 0.0 0.0 0.00 0.00 0.00 99 1013.8
20260906113457 8 293 0.0 0.0 0.00 0.00 0.00 99 1014.0
20260906112952 8 293 0.0 0.0 0.00 0.00 0.00 99 1013.8
20260906112448 8 293 0.0 0.0 0.00 0.00 0.00 99 1013.8
20260906111944 9 293 0.0 0.0 0.00 0.00 0.00 99 1013.7
20260906111442 8 293 0.0 0.0 0.00 0.00 0.00 99 1014.1
20260906110938 8 293 0.0 0.0 0.00 0.00 0.00 99 1013.9
20260906110433 8 293 0.0 0.0 0.00 0.00 0.00 99 1013.8
20260906105932 8 293 0.0 0.0 0.00 0.00 0.00 99 1013.7
20260906105427 8 293 0.0 0.0 0.00 0.00 0.00 99 1013.8
20260906104923 8 293 0.0 0.0 0.00 0.00 0.00 99 1013.7
20260906104421 8 293 0.0 0.0 0.00 0.00 0.00 99 1013.9
20260906103916 8 293 0.0 0.0 0.00 0.00 0.00 99 1013.7
20260906103414 8 293 0.0 0.0 0.00 0.00 0.00 99 1013.8
20260906102910 8 293 0.0 0.0 0.00 0.00 0.00 99 1014.0
20260906102409 8 293 0.0 0.0 0.00 0.00 0.00 99 1013.8
20260906101904 8 293 0.0 0.0 0.00 0.00 0.00 99 1013.8
20260906101359 8 293 0.0 0.0 0.00 0.00 0.00 99 1013.7
20260906100855 8 293 0.0 0.0 0.00 0.00 0.00 99 1013.9
20260906100354 8 293 0.0 0.0 0.00 0.00 0.00 99 1013.9
20260906095849 8 293 0.0 0.0 0.00 0.00 0.00 99 1013.8
20260906095344 8 292 0.0 0.0 0.00 0.00 0.00 99 1013.9
20260906094843 8 292 0.0 0.0 0.00 0.00 0.00 99 1014.0
20260906094338 8 292 0.0 0.0 0.00 0.00 0.00 99 1013.8
20260906093835 8 292 0.0 0.0 0.00 0.00 0.00 99 1014.2
20260906093325 8 292 0.0 0.0 0.00 0.00 0.00 99 1014.1
20260906092819 8 292 0.0 0.0 0.00 0.00 0.00 99 1014.0
20260906092314 8 292 0.0 0.0 0.00 0.00 0.00 99 1014.0
20260906091809 9 292 0.0 0.0 0.00 0.00 0.00 98 1014.1
20260906091306 9 292 0.0 0.0 0.00 0.00 0.00 98 1014.0
20260906090802 9 292 0.0 0.0 0.00 0.00 0.00 98 1014.0
20260906090301 9 292 0.0 0.0 0.00 0.00 0.00 98 1013.9
20260906085800 9 292 0.0 0.0 0.00 0.00 0.00 98 1014.1
20260906085253 9 292 0.0 0.0 0.00 0.00 0.00 98 1014.0
20260906084748 9 292 0.0 0.0 0.00 0.00 0.00 98 1014.1
20260906084242 9 292 0.0 0.0 0.00 0.00 0.00 98 1014.0
20260906083737 9 292 0.0 0.0 0.00 0.00 0.00 98 1014.0
20260906083233 9 292 0.0 0.0 0.00 0.00 0.00 98 1014.0
20260906082728 9 292 0.0 0.0 0.00 0.00 0.00 98 1014.1
20260906082223 9 292 0.0 0.0 0.00 0.00 0.00 98 1014.0
20260906081719 9 292 0.0 0.0 0.00 0.00 0.00 97 1014.3
20260906081213 9 292 0.0 0.0 0.00 0.00 0.00 97 1014.1
20260906080710 9 292 0.0 0.0 0.00 0.00 0.00 97 1014.2
20260906080206 10 292 0.0 0.0 0.00 0.00 0.00 97 1014.1
20260906075700 10 292 0.0 0.0 0.00 0.00 0.00 97 1014.3
20260906075154 10 292 0.0 0.0 0.00 0.00 0.00 97 1014.2
20260906074649 10 292 0.0 0.0 0.00 0.00 0.00 96 1014.3
20260906074143 10 292 0.0 0.0 0.00 0.00 0.00 96 1014.2
20260906073638 10 292 0.0 0.0 0.00 0.00 0.00 96 1014.1
20260906073134 10 292 0.0 0.0 0.00 0.00 0.00 96 1014.3
20260906072629 10 292 0.0 0.0 0.00 0.00 0.00 96 1014.3
20260906072124 10 292 0.0 0.0 0.00 0.00 0.00 96 1014.1
20260906071620 10 292 0.0 0.0 0.00 0.00 0.00 96 1014.2
20260906071115 10 292 0.0 0.0 0.00 0.00 0.00 96 1014.2
20260906070612 10 292 0.0 0.0 0.00 0.00 0.00 97 1014.4
20260906070107 10 292 0.0 0.0 0.00 0.00 0.00 96 1014.2
20260906065607 10 292 0.0 0.0 0.00 0.00 0.00 96 1014.4
20260906065102 10 292 0.0 0.0 0.00 0.00 0.00 96 1014.3
20260906064557 10 292 0.0 0.0 0.00 0.00 0.00 97 1014.2
20260906064052 10 291 0.0 0.0 0.00 0.00 0.00 96 1014.2
20260906063547 10 291 0.0 0.0 0.00 0.00 0.00 97 1014.2
20260906063043 10 290 0.0 0.0 0.00 0.00 0.00 97 1014.2
20260906062538 10 289 0.0 0.0 0.00 0.00 0.00 97 1014.3
20260906062032 10 296 0.0 0.0 0.00 0.00 0.00 96 1014.2
20260906061529 10 296 0.0 0.0 0.00 0.00 0.00 97 1014.3
20260906061027 10 295 0.0 0.0 0.00 0.00 0.00 96 1014.3
20260906060524 10 298 0.0 0.0 0.00 0.00 0.00 96 1014.3
20260906060021 10 293 0.0 0.0 0.00 0.00 0.00 96 1014.3
20260906055517 10 259 1.6 1.6 0.00 0.00 0.00 96 1014.1
20260906055012 10 272 1.6 1.6 0.00 0.00 0.00 95 1014.3
20260906054507 10 285 0.0 0.0 0.00 0.00 0.00 95 1014.3
20260906054002 10 276 0.0 1.6 0.00 0.00 0.00 95 1014.4
20260906053458 11 274 1.6 1.6 0.00 0.00 0.00 95 1014.3
20260906052954 11 300 0.0 0.0 0.00 0.00 0.00 94 1014.4
20260906052450 11 292 0.0 0.0 0.00 0.00 0.00 94 1014.3
20260906051946 11 294 0.0 0.0 0.00 0.00 0.00 94 1014.3
20260906051442 11 293 0.0 0.0 0.00 0.00 0.00 94 1014.4
20260906050937 11 282 1.6 1.6 0.00 0.00 0.00 94 1014.3
20260906050437 11 299 0.0 0.0 0.00 0.00 0.00 93 1014.4
20260906045936 11 295 0.0 0.0 0.00 0.00 0.00 93 1014.4
20260906045435 11 297 0.0 0.0 0.00 0.00 0.00 93 1014.5
20260906044931 11 297 0.0 0.0 0.00 0.00 0.00 92 1014.5
20260906044426 11 297 0.0 0.0 0.00 0.00 0.00 92 1014.5
20260906043922 11 297 0.0 0.0 0.00 0.00 0.00 92 1014.5
20260906043417 11 296 0.0 0.0 0.00 0.00 0.00 91 1014.4
20260906042913 11 300 0.0 0.0 0.00 0.00 0.00 90 1014.4
20260906042412 11 304 0.0 0.0 0.00 0.00 0.00 91 1014.2
20260906041907 12 304 0.0 0.0 0.00 0.00 0.00 90 1014.1
20260906041403 12 303 0.0 0.0 0.00 0.00 0.00 90 1014.4
20260906040903 12 302 0.0 0.0 0.00 0.00 0.00 89 1014.1
20260906040358 12 296 1.6 1.6 0.00 0.00 0.00 88 1014.0
20260906035853 12 281 0.0 0.0 0.00 0.00 0.00 87 1014.1
20260906035349 12 287 0.0 1.6 0.00 0.00 0.00 87 1014.0
20260906034843 12 294 0.0 0.0 0.00 0.00 0.00 87 1014.0
20260906034338 13 292 0.0 0.0 0.00 0.00 0.00 86 1014.0
20260906033834 13 305 0.0 1.6 0.00 0.00 0.00 84 1013.9
20260906033333 13 260 1.6 3.2 0.00 0.00 0.00 83 1013.9
20260906032830 13 291 1.6 1.6 0.00 0.00 0.00 82 1014.0
20260906032326 13 304 0.0 1.6 0.00 0.00 0.00 81 1013.9
20260906031821 14 297 0.0 1.6 0.00 0.00 0.00 80 1013.8
20260906031316 14 320 1.6 3.2 0.00 0.00 0.00 79 1014.0
20260906030815 14 309 1.6 1.6 0.00 0.00 0.00 79 1014.0
20260906030311 14 306 1.6 1.6 0.00 0.00 0.00 78 1014.1
20260906025811 14 311 0.0 0.0 0.00 0.00 0.00 78 1013.9
20260906025306 15 312 0.0 0.0 0.00 0.00 0.00 78 1014.0
20260906024804 15 319 0.0 1.6 0.00 0.00 0.00 77 1013.9
20260906024303 15 305 0.0 0.0 0.00 0.00 0.00 76 1013.9
20260906023759 15 314 1.6 1.6 0.00 0.00 0.00 74 1014.0
20260906023254 15 309 0.0 0.0 0.00 0.00 0.00 73 1014.0
20260906022750 15 290 1.6 1.6 0.00 0.00 0.00 72 1013.9
20260906022245 16 301 0.0 0.0 0.00 0.00 0.00 71 1014.1
20260906021741 16 302 1.6 1.6 0.00 0.00 0.00 70 1014.0
20260906021240 16 273 0.0 0.0 0.00 0.00 0.00 69 1014.0
20260906020734 16 308 0.0 1.6 0.00 0.00 0.00 67 1014.2
20260906020229 16 317 0.0 1.6 0.00 0.00 0.00 65 1014.1
20260906015724 17 338 1.6 1.6 0.00 0.00 0.00 66 1014.2
20260906015222 17 306 4.8 8.0 0.00 0.00 0.00 64 1014.2
20260906014717 17 324 0.0 1.6 0.00 0.00 0.00 64 1014.2
20260906014213 17 292 1.6 3.2 0.00 0.00 0.00 63 1014.0
20260906013709 17 299 0.0 0.0 0.00 0.00 0.00 62 1014.2
20260906013208 17 283 3.2 3.2 0.00 0.00 0.00 63 1014.1
20260906012703 17 304 1.6 1.6 0.00 0.00 0.00 63 1014.1
20260906012158 18 254 4.8 8.0 0.00 0.00 0.00 62 1014.1
20260906011653 18 261 1.6 1.6 0.00 0.00 0.00 64 1014.3
20260906011147 18 302 1.6 3.2 0.00 0.00 0.00 64 1014.2
20260906010637 18 231 1.6 3.2 0.00 0.00 0.00 64 1014.2
20260906010133 18 300 1.6 3.2 0.00 0.00 0.00 64 1014.1
20260906005632 18 311 9.7 11.3 0.00 0.00 0.00 63 1014.1
20260906005127 18 295 1.6 3.2 0.00 0.00 0.00 62 1014.1
20260906004626 18 212 3.2 4.8 0.00 0.00 0.00 61 1014.1
20260906004121 18 253 3.2 4.8 0.00 0.00 0.00 62 1014.2
20260906003616 18 287 1.6 3.2 0.00 0.00 0.00 62 1014.3
20260906003112 19 287 3.2 3.2 0.00 0.00 0.00 59 1014.1
20260906002607 20 305 0.0 1.6 0.00 0.00 0.00 59 1014.4
20260906002101 20 291 6.4 8.0 0.00 0.00 0.00 56 1014.3
20260906001551 20 344 4.8 4.8 0.00 0.00 0.00 60 1014.2
20260906001050 20 308 4.8 4.8 0.00 0.00 0.00 60 1014.2
20260906000547 20 303 4.8 4.8 0.00 0.00 0.00 58 1014.3
20260906000042 20 284 3.2 4.8 0.00 0.00 0.00 56 1014.3
20260905235536 21 316 1.6 3.2 0.00 0.00 0.00 56 1014.3
20260905235031 21 235 4.8 8.0 0.00 0.00 0.00 55 1014.1
20260905234526 21 289 3.2 4.8 0.00 0.00 0.00 55 1014.3
20260905234021 21 278 4.8 4.8 0.00 0.00 0.00 57 1014.2
20260905233516 21 307 1.6 3.2 0.00 0.00 0.00 56 1014.3
20260905233015 20 301 1.6 3.2 0.00 0.00 0.00 59 1014.2
20260905232511 21 248 6.4 9.7 0.00 0.00 0.00 55 1014.3
20260905232007 21 285 1.6 1.6 0.00 0.00 0.00 57 1014.3
20260905231502 21 306 3.2 3.2 0.00 0.00 0.00 56 1014.3
20260905230958 21 232 4.8 8.0 0.00 0.00 0.00 55 1014.6
20260905230456 21 236 0.0 1.6 0.00 0.00 0.00 57 1014.6
20260905225954 21 297 4.8 4.8 0.00 0.00 0.00 55 1014.5
20260905225450 21 230 3.2 3.2 0.00 0.00 0.00 57 1014.6
20260905224945 21 275 1.6 1.6 0.00 0.00 0.00 58 1014.8
20260905224440 21 249 4.8 8.0 0.00 0.00 0.00 55 1014.9
20260905223939 21 265 3.2 4.8 0.00 0.00 0.00 57 1014.8
20260905223438 21 274 4.8 8.0 0.00 0.00 0.00 57 1014.7
20260905222932 21 259 4.8 8.0 0.00 0.00 0.00 56 1014.9
20260905222432 21 295 4.8 8.0 0.00 0.00 0.00 59 1014.8
20260905221928 21 253 8.0 11.3 0.00 0.00 0.00 59 1014.8
20260905221424 22 256 6.4 11.3 0.00 0.00 0.00 56 1014.9
20260905220920 22 306 1.6 1.6 0.00 0.00 0.00 56 1015.0
20260905220416 22 311 3.2 3.2 0.00 0.00 0.00 54 1014.8
20260905215915 23 335 1.6 3.2 0.00 0.00 0.00 57 1014.8
20260905215411 22 304 6.4 8.0 0.00 0.00 0.00 55 1014.6
20260905214907 22 257 6.4 9.7 0.00 0.00 0.00 53 1015.1
20260905214403 23 233 3.2 4.8 0.00 0.00 0.00 49 1015.0
20260905213857 23 237 9.7 16.1 0.00 0.00 0.00 45 1014.7
20260905213353 23 284 8.0 9.7 0.00 0.00 0.00 47 1014.6
20260905212854 23 306 6.4 9.7 0.00 0.00 0.00 49 1014.8
20260905212354 23 240 3.2 4.8 0.00 0.00 0.00 47 1014.8
20260905211847 23 269 1.6 1.6 0.00 0.00 0.00 47 1014.7
20260905211343 23 253 4.8 4.8 0.00 0.00 0.00 44 1014.8
20260905210839 23 272 4.8 4.8 0.00 0.00 0.00 46 1014.7
20260905210334 23 247 6.4 8.0 0.00 0.00 0.00 44 1014.7
20260905205833 23 223 3.2 4.8 0.00 0.00 0.00 47 1014.9
20260905205332 23 256 4.8 4.8 0.00 0.00 0.00 47 1014.8
20260905204827 23 232 4.8 8.0 0.00 0.00 0.00 47 1014.7
20260905204323 23 220 6.4 9.7 0.00 0.00 0.00 52 1014.9
20260905203821 23 293 4.8 8.0 0.00 0.00 0.00 52 1014.7
20260905203318 22 304 3.2 4.8 0.00 0.00 0.00 53 1014.8
20260905202813 22 195 6.4 11.3 0.00 0.00 0.00 55 1014.7
20260905202307 22 191 8.0 11.3 0.00 0.00 0.00 55 1014.7
20260905201758 22 220 4.8 4.8 0.00 0.00 0.00 55 1014.6
20260905201253 23 224 3.2 4.8 0.00 0.00 0.00 56 1014.6
20260905200747 22 248 4.8 8.0 0.00 0.00 0.00 60 1014.6
20260905200243 22 135 3.2 4.8 0.00 0.00 0.00 58 1014.5
20260905195740 22 125 3.2 3.2 0.00 0.00 0.00 61 1014.6
20260905195236 22 249 6.4 8.0 0.00 0.00 0.00 60 1014.8
20260905194732 22 94 3.2 4.8 0.00 0.00 0.00 59 1014.7
20260905194231 23 283 3.2 4.8 0.00 0.00 0.00 58 1014.8
20260905193725 23 250 3.2 4.8 0.00 0.00 0.00 59 1014.8
20260905193220 23 310 0.0 0.0 0.00 0.00 0.00 57 1014.7
20260905192716 23 240 3.2 3.2 0.00 0.00 0.00 58 1014.8
20260905192213 22 252 0.0 1.6 0.00 0.00 0.00 60 1014.8
20260905191712 22 225 4.8 8.0 0.00 0.00 0.00 59 1014.8
20260905191210 22 32 1.6 1.6 0.00 0.00 0.00 57 1014.9
20260905190709 22 83 4.8 4.8 0.00 0.00 0.00 59 1014.8
20260905190207 22 285 1.6 1.6 0.00 0.00 0.00 58 1015.0
20260905185701 22 291 0.0 1.6 0.00 0.00 0.00 59 1014.9
20260905185155 22 233 1.6 1.6 0.00 0.00 0.00 59 1015.0
20260905184654 21 346 0.0 0.0 0.00 0.00 0.00 62 1015.1
20260905184153 21 12 0.0 1.6 0.00 0.00 0.00 64 1015.0
20260905183648 21 54 1.6 1.6 0.00 0.00 0.00 63 1015.0
20260905183143 21 76 3.2 4.8 0.00 0.00 0.00 65 1015.1
20260905182642 21 295 1.6 3.2 0.00 0.00 0.00 65 1015.0
20260905182137 21 254 3.2 3.2 0.00 0.00 0.00 66 1015.1
20260905181632 20 147 3.2 3.2 0.00 0.00 0.00 67 1014.9
20260905181131 20 10 0.0 1.6 0.00 0.00 0.00 68 1015.0
20260905180626 20 298 3.2 3.2 0.00 0.00 0.00 69 1015.0
20260905180121 20 326 1.6 1.6 0.00 0.00 0.00 69 1015.0
20260905175620 20 291 1.6 3.2 0.00 0.00 0.00 73 1014.9
20260905175116 20 219 1.6 3.2 0.00 0.00 0.00 71 1014.9
20260905174611 20 282 3.2 4.8 0.00 0.00 0.00 72 1015.1
20260905174106 20 306 0.0 1.6 0.00 0.00 0.00 74 1015.0
20260905173603 20 263 1.6 3.2 0.00 0.00 0.00 72 1015.0
20260905173058 20 274 1.6 3.2 0.00 0.00 0.00 75 1014.9
20260905172556 20 298 0.0 1.6 0.00 0.00 0.00 73 1014.9
20260905172052 19 81 1.6 1.6 0.00 0.00 0.00 74 1015.0
20260905171548 18 32 3.2 3.2 0.00 0.00 0.00 76 1015.1
20260905171044 18 65 1.6 4.8 0.00 0.00 0.00 77 1015.0
20260905170541 18 107 1.6 3.2 0.00 0.00 0.00 77 1014.9
20260905170036 17 133 4.8 4.8 0.00 0.00 0.00 81 1015.0
20260905165531 17 14 1.6 1.6 0.00 0.00 0.00 81 1014.8
20260905165025 17 79 6.4 8.0 0.00 0.00 0.00 79 1014.8
20260905164520 17 78 4.8 4.8 0.00 0.00 0.00 82 1014.6
20260905164015 16 99 1.6 1.6 0.00 0.00 0.00 82 1014.8
20260905163511 16 17 1.6 1.6 0.00 0.00 0.00 82 1014.9
20260905163007 16 32 1.6 3.2 0.00 0.00 0.00 82 1014.9
20260905162502 16 18 1.6 1.6 0.00 0.00 0.00 83 1014.7
20260905161957 17 25 0.0 1.6 0.00 0.00 0.00 80 1014.6